DL2ZZM-13 Weather Reports


time (UTC)temp
C
wind
direction
speed
KPH
gust
KPH
rain 1hr
cm
rain 24hr
cm
rain mn
cm
humidity
%
barometer
mb
20260506013315 7 0.0 0.0 0.00 0.23 0.00 93 1009.4
20260506012315 7 0.0 0.0 0.00 0.23 0.00 93 1009.2
20260506011315 7 0.0 0.0 0.00 0.23 0.00 93 1009.0
20260506010337 7 270 3.2 4.8 0.00 0.23 0.00 93 1008.9
20260506005317 7 270 3.2 4.8 0.00 0.23 0.00 93 1009.1
20260506004317 7 270 3.2 4.8 0.00 0.23 0.00 93 1009.0
20260506003317 8 248 3.2 4.8 0.00 0.23 0.00 92 1009.2
20260506002337 8 0.0 0.0 0.00 0.23 0.00 93 1009.4
20260506001317 8 0.0 0.0 0.00 0.23 0.00 92 1009.6
20260506000317 8 225 4.8 6.4 0.00 0.23 0.00 92 1009.8
20260505235317 8 248 3.2 4.8 0.00 0.23 0.00 92 1009.8
20260505234317 8 248 3.2 4.8 0.00 0.23 0.00 92 1009.9
20260505233317 8 248 6.4 8.0 0.00 0.23 0.00 92 1010.0
20260505232317 8 225 3.2 4.8 0.00 0.23 0.00 92 1010.0
20260505231317 8 225 1.6 3.2 0.00 0.23 0.00 92 1010.0
20260505230337 9 0.0 0.0 0.00 0.23 0.00 91 1010.1
20260505225317 9 225 1.6 3.2 0.00 0.23 0.00 91 1010.1
20260505224317 9 0.0 0.0 0.00 0.23 0.00 91 1010.2
20260505223317 9 0.0 0.0 0.00 0.23 0.00 91 1010.1
20260505222437 9 225 3.2 4.8 0.00 0.23 0.00 91 1010.1
20260505221317 10 225 6.4 8.0 0.00 0.23 0.00 91 1010.1
20260505220317 10 225 8.0 11.3 0.00 0.23 0.00 91 1009.9
20260505215316 10 248 9.7 16.1 0.00 0.25 0.23 91 1009.9
20260505214336 10 225 6.4 8.0 0.00 0.25 0.23 91 1009.8
20260505213316 10 248 8.0 12.9 0.00 0.25 0.23 91 1010.0
20260505212356 10 225 6.4 9.7 0.00 0.25 0.23 91 1010.0
20260505211316 10 225 6.4 9.7 0.00 0.25 0.23 91 1010.0
20260505210316 10 203 6.4 9.7 0.00 0.25 0.23 91 1010.3
20260505205316 10 203 8.0 12.9 0.00 0.30 0.23 91 1010.1
20260505204316 11 225 6.4 8.0 0.00 0.30 0.23 91 1010.0
20260505203315 11 203 6.4 9.7 0.00 0.30 0.23 91 1009.9
20260505202316 11 203 8.0 11.3 0.00 0.30 0.23 91 1009.9
20260505201315 11 225 8.0 12.9 0.00 0.30 0.23 91 1009.7
20260505200315 11 225 4.8 8.0 0.03 0.30 0.23 90 1009.5
20260505195315 11 225 3.2 6.4 0.03 0.30 0.23 90 1009.4
20260505193316 11 203 4.8 6.4 0.03 0.30 0.23 89 1009.2
20260505192315 11 225 3.2 4.8 0.03 0.30 0.23 89 1009.2
20260505191315 11 270 3.2 6.4 0.03 0.30 0.23 88 1009.3
20260505190315 12 248 3.2 4.8 0.00 0.28 0.23 87 1009.4
20260505185315 12 248 4.8 6.4 0.00 0.28 0.23 86 1009.5
20260505184335 12 293 4.8 11.3 0.00 0.28 0.23 85 1009.2
20260505183315 12 270 8.0 12.9 0.00 0.28 0.23 85 1009.3
20260505182315 12 293 4.8 6.4 0.00 0.28 0.23 85 1009.4
20260505181315 12 270 4.8 11.3 0.00 0.28 0.23 85 1009.2
20260505180315 13 293 4.8 6.4 0.00 0.28 0.23 85 1009.1
20260505175335 13 270 3.2 4.8 0.00 0.28 0.23 84 1009.0
20260505174335 13 270 4.8 6.4 0.00 0.28 0.23 84 1008.9
20260505173315 13 293 3.2 6.4 0.00 0.28 0.23 83 1008.9
20260505172315 13 225 6.4 8.0 0.00 0.28 0.23 83 1008.8
20260505171315 14 293 4.8 8.0 0.00 0.28 0.23 84 1008.8
20260505165335 13 270 1.6 1.6 0.00 0.28 0.23 84 1008.7
20260505164317 13 270 3.2 4.8 0.00 0.28 0.23 85 1008.8
20260505163317 13 338 1.6 4.8 0.00 0.28 0.23 86 1008.9
20260505162337 13 23 1.6 4.8 0.00 0.28 0.23 86 1008.9
20260505161317 13 315 3.2 3.2 0.00 0.28 0.23 87 1008.9
20260505160317 12 0 6.4 8.0 0.00 0.28 0.23 89 1008.9
20260505153317 12 315 3.2 6.4 0.00 0.28 0.23 90 1009.4
20260505152317 12 293 4.8 8.0 0.00 0.28 0.23 90 1009.3
20260505151317 12 338 4.8 9.7 0.00 0.28 0.23 90 1009.2
20260505150417 12 293 8.0 11.3 0.00 0.28 0.23 90 1009.3
20260505140317 13 248 6.4 11.3 0.23 0.28 0.23 89 1009.9
20260505124317 17 338 3.2 4.8 0.00 0.05 0.00 68 1009.4
20260505123317 17 338 1.6 1.6 0.00 0.05 0.00 68 1009.4
20260505122336 17 315 3.2 4.8 0.00 0.05 0.00 69 1009.4
20260505121317 17 338 6.4 8.0 0.00 0.05 0.00 67 1009.4
20260505120337 18 0 6.4 9.7 0.00 0.05 0.00 67 1009.3
20260505115316 18 0 3.2 6.4 0.00 0.05 0.00 67 1009.3
20260505114317 18 23 1.6 6.4 0.00 0.05 0.00 67 1009.2
20260505113316 18 0.0 0.0 0.00 0.05 0.00 66 1009.1
20260505112316 18 315 3.2 4.8 0.00 0.05 0.00 65 1009.0
20260505111317 18 225 3.2 4.8 0.00 0.05 0.00 66 1009.1
20260505110316 18 315 4.8 6.4 0.00 0.05 0.00 65 1009.2
20260505101316 20 203 1.6 3.2 0.00 0.05 0.00 62 1009.6
20260505100316 19 293 6.4 8.0 0.00 0.05 0.00 62 1009.7
20260505095336 18 90 1.6 3.2 0.00 0.05 0.00 64 1009.7
20260505094316 18 293 3.2 3.2 0.00 0.05 0.00 66 1009.9
20260505093316 18 293 3.2 4.8 0.00 0.05 0.00 66 1009.9
20260505092436 18 225 3.2 4.8 0.00 0.05 0.00 66 1010.0
20260505091316 18 0.0 1.6 0.00 0.05 0.00 65 1010.0
20260505090316 18 45 3.2 4.8 0.00 0.05 0.00 69 1010.1
20260505085316 17 135 1.6 3.2 0.00 0.05 0.00 71 1010.1
20260505084316 17 0.0 1.6 0.00 0.05 0.00 71 1010.2
20260505083316 17 135 4.8 6.4 0.00 0.05 0.00 72 1010.3
20260505082316 17 90 3.2 6.4 0.00 0.05 0.00 71 1010.2
20260505081316 17 113 3.2 4.8 0.00 0.05 0.00 71 1010.3
20260505080316 17 90 3.2 4.8 0.00 0.05 0.00 71 1010.5
20260505075316 17 135 3.2 6.4 0.00 0.05 0.00 72 1010.5
20260505074336 17 68 6.4 9.7 0.00 0.05 0.00 71 1010.6
20260505073316 17 0 3.2 3.2 0.00 0.05 0.00 70 1010.6
20260505072336 17 90 3.2 4.8 0.00 0.05 0.00 71 1010.6
20260505071356 17 113 3.2 6.4 0.00 0.05 0.00 70 1010.8
20260505070316 16 45 4.8 8.0 0.00 0.05 0.00 70 1010.7
20260505065316 17 338 4.8 6.4 0.00 0.05 0.00 70 1010.7
20260505064316 17 45 6.4 8.0 0.00 0.05 0.00 70 1010.9
20260505063316 17 0 3.2 4.8 0.00 0.05 0.00 71 1010.9
20260505062316 17 23 8.0 14.5 0.00 0.05 0.00 70 1010.9
20260505061316 16 45 4.8 8.0 0.00 0.05 0.00 73 1011.0
20260505060336 15 45 1.6 4.8 0.00 0.05 0.00 79 1011.0
20260505055316 12 68 3.2 6.4 0.00 0.05 0.00 89 1011.1
20260505054316 11 0 3.2 6.4 0.00 0.05 0.00 92 1011.1
20260505053316 10 0.0 0.0 0.00 0.05 0.00 93 1011.2
20260505052316 10 0.0 1.6 0.00 0.05 0.00 92 1011.0
20260505051316 9 23 1.6 1.6 0.00 0.05 0.00 91 1011.1
20260505050336 8 0.0 1.6 0.00 0.05 0.00 91 1011.0
20260505041316 8 0.0 0.0 0.00 0.05 0.00 87 1011.1
20260505040316 9 0.0 0.0 0.00 0.05 0.00 88 1011.2
20260505035315 9 0 4.8 6.4 0.00 0.05 0.00 89 1011.3
20260505034336 9 338 3.2 4.8 0.00 0.05 0.00 89 1011.5
20260505033316 8 338 3.2 4.8 0.00 0.05 0.00 88 1011.5
20260505032315 8 0.0 0.0 0.00 0.05 0.00 87 1011.7
20260505031315 9 293 1.6 3.2 0.00 0.05 0.00 86 1011.7
20260505030336 9 293 1.6 3.2 0.00 0.05 0.00 85 1011.9
20260505025335 10 0 1.6 3.2 0.00 0.05 0.00 84 1012.1
20260505024316 10 0 4.8 6.4 0.00 0.05 0.00 85 1012.0
20260505023315 10 338 3.2 6.4 0.00 0.05 0.00 86 1012.1
20260505022335 10 338 4.8 6.4 0.00 0.05 0.00 87 1012.2
20260505021315 10 338 3.2 6.4 0.00 0.05 0.00 87 1012.4
20260505020315 10 0.0 0.0 0.00 0.05 0.00 86 1012.5
20260505015315 10 0.0 0.0 0.00 0.05 0.00 85 1012.6
20260505014315 10 0.0 0.0 0.00 0.05 0.00 85 1012.7